星链-30854 (STARLINK-30854 )

导读

STARLINK-30854是美国SpaceX公司星链(Starlink)星座中的一颗低轨通信卫星,于2023年11月8日发射。星链星座旨在为全球提供高速宽带互联网服务,该卫星采用平板设计,配备太阳电池阵与氪工质霍尔推进器,搭载Ku/Ka波段通信载荷,具备自主避撞能力,设计寿命约5-7年,退役后会再入大气层销毁,服务全球偏远地区接入、应急通信等场景。

Basic Information
目录编号:
58244
目录名称:
STARLINK-30854
国际标识:
2023-171Q
轨道中心:
EARTH
卫星名称:
星链-30854
卫星全名:
星链-30854 (STARLINK-30854 )
卫星状态:
在轨 (已飞行953 天)
发射日期:
2023-11-08 UTC
国别 :
美国 (US)
星等 :
--
Orbit Information
数据来源 国际轨道数据 AOE轨道数据
星历时间 2026-06-16T19:46:54+0800
1天前
查看轨道信息
2026-06-16T23:00:00+0800
1天前
查看轨道信息
半长轴 6861.183km 6861.11km
偏心率 0.0001508 0.0000575
轨道倾角 43.010° 43.005°
近地点辐角 263.712° 189.364°
升交点赤经 87.359° 86.600°
平近点角 96.356° 188.990°
近地点 482.011km 482.578km
远地点 484.081km 483.368km
周期 94.267分钟 94.265分钟
每日圈数 15.275812 15.276055
Detailed Information
固有亮度:
5
最大亮度:
0.3
卫星平台:
Starlink v2.0 mini
覆盖范围:
全球
运营商:
太空探索技术公司
运营商所在国:
美国
制造商(研发单位):
太空探索技术公司
制造商所在国:
美国
使用方式:
暂无
Satellite Introduction
星链(Starlink)计划是由太空探索技术公司(SpaceX)提出的一个巨型低轨卫星互联网星座项目,计划在2019年至2024年间在太空搭建由约1.2万颗卫星组成的“星链”网络,其中1584颗将部署在地球上空550千米处的近地轨道,并从2020年开始工作。该卫星仍在工作。
2D Orbit Map
3D Orbit Map
Orbit Altitude Analysis Chart
Orbit Inclination Analysis Chart
Orbit Comprehensive Analysis Chart
View Comprehensive Chart